When you browse on this site, cookies collect data to enhance your experience and personalize the content and advertising you see.
Visit our Privacy Policy to learn more. By continuing to use the site, you agree to this use of cookies and data.
  • In Lithuania
  • List of Countries
  • For 7 days
  • Water Temperature
  • Satellite Maps
  • Weather Map
  • Weather Widgets
  • user-avatar
    Login

    Hourly Weather Zadonschino

    Today, 16 June, Sunday

    Time Temperature Precipitation Wind Pressure Humidity
    00:00 +16°C° 0 mm 2 mps 746 mmHg 85%
    01:00 +15°C° 0 mm 1 mps 746 mmHg 88%
    02:00 +14°C° 0 mm 1 mps 746 mmHg 90%
    03:00 +13°C° 0 mm 0 mps 746 mmHg 92%
    04:00 +14°C° 0 mm 1 mps 746 mmHg 91%
    05:00 +15°C° 0 mm 1 mps 746 mmHg 91%
    06:00 +15°C° 0 mm 1 mps 746 mmHg 90%
    07:00 +16°C° 0 mm 1 mps 746 mmHg 86%
    08:00 +18°C° 0 mm 1 mps 746 mmHg 81%
    09:00 +18°C° 0 mm 0 mps 746 mmHg 77%
    10:00 +20°C° 0.4 mm 1 mps 746 mmHg 76%
    11:00 +20°C° 0.4 mm 2 mps 746 mmHg 76%
    12:00 +21°C° 0.4 mm 3 mps 746 mmHg 75%
    13:00 +21°C° 0.3 mm 3 mps 746 mmHg 73%
    14:00 +22°C° 0.3 mm 3 mps 746 mmHg 70%
    15:00 +22°C° 0.3 mm 3 mps 746 mmHg 68%
    16:00 +22°C° 0.1 mm 3 mps 746 mmHg 70%
    17:00 +22°C° 0.1 mm 3 mps 746 mmHg 72%
    18:00 +21°C° 0.1 mm 3 mps 746 mmHg 74%
    19:00 +20°C° 0 mm 3 mps 746 mmHg 79%
    20:00 +18°C° 0 mm 2 mps 746 mmHg 84%
    21:00 +17°C° 0 mm 2 mps 746 mmHg 90%
    22:00 +16°C° 0 mm 2 mps 746 mmHg 90%
    23:00 +16°C° 0 mm 1 mps 747 mmHg 90%

    Tomorrow, 17 June, Monday

    Time Temperature Precipitation Wind Pressure Humidity
    00:00 +15°C° 0 mm 1 mps 747 mmHg 90%
    01:00 +15°C° 0 mm 1 mps 747 mmHg 90%
    02:00 +14°C° 0 mm 1 mps 747 mmHg 90%
    03:00 +14°C° 0 mm 1 mps 747 mmHg 90%
    04:00 +15°C° 0 mm 1 mps 747 mmHg 88%
    05:00 +15°C° 0 mm 1 mps 747 mmHg 85%
    06:00 +16°C° 0 mm 1 mps 747 mmHg 83%
    07:00 +19°C° 0 mm 1 mps 747 mmHg 78%
    08:00 +20°C° 0 mm 1 mps 747 mmHg 72%
    09:00 +22°C° 0 mm 1 mps 748 mmHg 67%
    10:00 +23°C° 0 mm 1 mps 748 mmHg 64%
    11:00 +23°C° 0 mm 1 mps 748 mmHg 60%
    12:00 +24°C° 0 mm 1 mps 748 mmHg 57%
    13:00 +24°C° 0.1 mm 2 mps 747 mmHg 60%
    14:00 +24°C° 0.1 mm 2 mps 747 mmHg 63%
    15:00 +24°C° 0.1 mm 2 mps 747 mmHg 66%
    16:00 +24°C° 0.1 mm 2 mps 747 mmHg 68%
    17:00 +24°C° 0.1 mm 2 mps 747 mmHg 70%
    18:00 +24°C° 0.1 mm 2 mps 747 mmHg 73%
    19:00 +23°C° 0 mm 1 mps 747 mmHg 74%
    20:00 +22°C° 0 mm 1 mps 746 mmHg 76%
    21:00 +21°C° 0 mm 1 mps 746 mmHg 78%
    22:00 +20°C° 0 mm 1 mps 746 mmHg 79%
    23:00 +20°C° 0 mm 1 mps 746 mmHg 81%

    Day after tomorrow, 18 June, Tuesday

    Time Temperature Precipitation Wind Pressure Humidity
    00:00 +19°C° 0 mm 2 mps 746 mmHg 82%
    01:00 +18°C° 0 mm 2 mps 746 mmHg 85%
    02:00 +17°C° 0 mm 2 mps 746 mmHg 88%
    03:00 +17°C° 0 mm 2 mps 746 mmHg 90%
    04:00 +17°C° 0 mm 2 mps 746 mmHg 89%
    05:00 +18°C° 0 mm 2 mps 746 mmHg 88%
    06:00 +18°C° 0 mm 3 mps 746 mmHg 86%
    07:00 +20°C° 0.1 mm 3 mps 746 mmHg 83%
    08:00 +21°C° 0.1 mm 3 mps 746 mmHg 79%
    09:00 +22°C° 0.1 mm 3 mps 746 mmHg 76%
    10:00 +22°C° 0.4 mm 3 mps 746 mmHg 78%
    11:00 +22°C° 0.4 mm 3 mps 746 mmHg 80%
    12:00 +22°C° 0.4 mm 3 mps 746 mmHg 81%
    13:00 +22°C° 0.3 mm 3 mps 746 mmHg 84%
    14:00 +22°C° 0.3 mm 4 mps 745 mmHg 86%
    15:00 +21°C° 0.3 mm 4 mps 745 mmHg 88%
    16:00 +21°C° 0.1 mm 4 mps 745 mmHg 85%
    17:00 +22°C° 0.1 mm 4 mps 745 mmHg 82%
    18:00 +22°C° 0.1 mm 4 mps 745 mmHg 79%
    19:00 +21°C° 0 mm 3 mps 746 mmHg 82%
    20:00 +20°C° 0 mm 2 mps 746 mmHg 85%
    21:00 +20°C° 0 mm 1 mps 746 mmHg 87%
    22:00 +18°C° 0 mm 2 mps 747 mmHg 86%
    23:00 +17°C° 0 mm 2 mps 747 mmHg 85%

    19 June, Wednesday

    Time Temperature Precipitation Wind Pressure Humidity
    00:00 +17°C° 0 mm 2 mps 747 mmHg 83%
    01:00 +16°C° 0 mm 2 mps 747 mmHg 84%
    02:00 +16°C° 0 mm 2 mps 747 mmHg 84%
    03:00 +16°C° 0 mm 2 mps 747 mmHg 85%
    04:00 +16°C° 0 mm 2 mps 748 mmHg 85%
    05:00 +17°C° 0 mm 2 mps 748 mmHg 85%
    06:00 +17°C° 0 mm 2 mps 748 mmHg 86%
    07:00 +19°C° 0 mm 3 mps 748 mmHg 80%
    08:00 +20°C° 0 mm 3 mps 748 mmHg 75%
    09:00 +21°C° 0 mm 3 mps 748 mmHg 69%
    10:00 +22°C° 0 mm 3 mps 749 mmHg 65%
    11:00 +24°C° 0 mm 3 mps 749 mmHg 61%
    12:00 +26°C° 0 mm 3 mps 749 mmHg 58%
    13:00 +26°C° 0 mm 3 mps 749 mmHg 58%
    14:00 +26°C° 0 mm 3 mps 749 mmHg 58%
    15:00 +26°C° 0 mm 3 mps 749 mmHg 58%
    16:00 +26°C° 0 mm 3 mps 749 mmHg 62%
    17:00 +26°C° 0 mm 3 mps 749 mmHg 66%
    18:00 +26°C° 0 mm 2 mps 749 mmHg 69%
    19:00 +24°C° 0 mm 2 mps 749 mmHg 71%
    20:00 +22°C° 0 mm 1 mps 749 mmHg 74%
    21:00 +20°C° 0 mm 1 mps 749 mmHg 76%
    22:00 +19°C° 0 mm 1 mps 749 mmHg 76%
    23:00 +19°C° 0 mm 1 mps 749 mmHg 75%

    20 June, Thursday

    Time Temperature Precipitation Wind Pressure Humidity
    00:00 +18°C° 0 mm 1 mps 750 mmHg 74%
    01:00 +18°C° 0 mm 1 mps 750 mmHg 77%
    02:00 +18°C° 0 mm 1 mps 750 mmHg 80%
    03:00 +16°C° 0 mm 2 mps 750 mmHg 83%
    04:00 +18°C° 0 mm 1 mps 750 mmHg 83%
    05:00 +19°C° 0 mm 1 mps 750 mmHg 83%
    06:00 +19°C° 0 mm 1 mps 750 mmHg 83%
    07:00 +21°C° 0 mm 1 mps 750 mmHg 77%
    08:00 +23°C° 0 mm 1 mps 750 mmHg 72%
    09:00 +24°C° 0 mm 1 mps 750 mmHg 67%
    10:00 +25°C° 0 mm 1 mps 750 mmHg 62%
    11:00 +26°C° 0 mm 1 mps 750 mmHg 57%
    12:00 +27°C° 0 mm 1 mps 750 mmHg 52%
    13:00 +28°C° 0 mm 1 mps 750 mmHg 49%
    14:00 +28°C° 0 mm 1 mps 750 mmHg 47%
    15:00 +28°C° 0 mm 1 mps 750 mmHg 45%
    16:00 +28°C° 0 mm 1 mps 750 mmHg 49%
    17:00 +28°C° 0 mm 1 mps 750 mmHg 54%
    18:00 +28°C° 0 mm 1 mps 750 mmHg 59%
    19:00 +26°C° 0 mm 1 mps 749 mmHg 60%
    20:00 +21°C° 0 mm 0 mps 749 mmHg 61%
    21:00 +19°C° 0 mm 0 mps 749 mmHg 63%
    22:00 +21°C° 0 mm 1 mps 750 mmHg 64%
    23:00 +20°C° 0 mm 1 mps 750 mmHg 65%

    21 June, Friday

    Time Temperature Precipitation Wind Pressure Humidity
    00:00 +20°C° 0 mm 1 mps 750 mmHg 66%
    01:00 +19°C° 0 mm 1 mps 750 mmHg 68%
    02:00 +19°C° 0 mm 1 mps 750 mmHg 70%
    03:00 +19°C° 0 mm 1 mps 750 mmHg 72%
    04:00 +19°C° 0 mm 1 mps 750 mmHg 74%
    05:00 +20°C° 0 mm 1 mps 750 mmHg 76%
    06:00 +21°C° 0 mm 1 mps 750 mmHg 78%
    07:00 +22°C° 0 mm 1 mps 750 mmHg 74%
    08:00 +23°C° 0 mm 1 mps 750 mmHg 70%
    09:00 +25°C° 0 mm 1 mps 750 mmHg 65%
    10:00 +26°C° 0 mm 1 mps 750 mmHg 62%
    11:00 +27°C° 0 mm 2 mps 750 mmHg 58%
    12:00 +28°C° 0 mm 2 mps 750 mmHg 54%
    13:00 +28°C° 0 mm 2 mps 750 mmHg 55%
    14:00 +28°C° 0 mm 2 mps 750 mmHg 56%
    15:00 +28°C° 0 mm 3 mps 750 mmHg 57%
    16:00 +28°C° 0 mm 2 mps 750 mmHg 60%
    17:00 +27°C° 0 mm 2 mps 750 mmHg 64%
    18:00 +27°C° 0 mm 2 mps 749 mmHg 67%
    19:00 +26°C° 0 mm 2 mps 750 mmHg 70%
    20:00 +24°C° 0 mm 1 mps 750 mmHg 73%
    21:00 +22°C° 0 mm 1 mps 750 mmHg 76%
    22:00 +22°C° 0 mm 1 mps 750 mmHg 77%
    23:00 +20°C° 0 mm 2 mps 750 mmHg 78%
    Show more